THORAD AGENA D DEB, 42541

Orbit data source: Space-Track

THORAD AGENA D DEB, 42541 is space debris in SSO originally from a launch on Wed, 08 Apr 1970 UTC launched from the Air Force Western Test Range (AFWTR). Debris objects in space refer to the collection of defunct objects orbiting the Earth. Examples of debris include non-operational satellites, rocket bodies, and fragments generated from explosions, collisions, or faulty payload assembly.

Loading next visibility...
Identifier
42541, 1970-025SX
Orbit
SSO
Country
Flag of USUS
Related business
Manufacturer
Unknown
Mission
Spacecraft
Bus & Motor
Unknown
Mass
Unknown
Launch date (UTC)
1970-04-08 (56 years ago)
Launch vehicle
Unknown
Launch site
Air Force Western Test Range (AFWTR)
Object type
Payload
Rocket body
Debris
Shape & HBR
Unknown shape, 0.1 m
Radar Cross Section
Small (<0.1 m²)

Expand to show TLE details & history
Last TLE update: 22 hours ago

TLE from 22 hours ago
0 THORAD AGENA D DEB
1 42541U 70025SX  25350.15001925  .00000459  00000-0  54667-3 0  9997
2 42541 100.0764 239.0143 0033366 331.4769 187.2055 13.73199093603789
Epoch: 2025-12-16T03:36Z
TLE epoch observation values (Epoch: 2025-12-16T03:36:01.663Z)
Latitude
21.02964°
Longitude
-76.13384°
Altitude
1,014.987 km
Speed
7.334 km/s
True Right ascension
04h 11m 38s
True Declination
20° 55' 07"
Sunlit
Object was in full shadow at epoch
Visualization orbit readout
Latitude
Unknown
Longitude
Unknown
Altitude
Unknown
Speed
Unknown
Apparent Right ascension
Unknown
Apparent Declination
Unknown
Sunlit
N/A
Visualization observer readout
Local Sidereal Time
23:54:11
Azimuth
Unknown
Elevation
Unknown
Doppler factor
Unknown
Orbital elements
Apogee altitude
1,009.968 km
Perigee altitude
960.829 km
Semi-major axis
7,363.536 km
Eccentricity
0.00334
Inclination
100.0764°
RAAN
239.0143°
Arg. of periapsis
331.4769°
True anomaly
187.15774°
Mean anomaly
187.2055°
Eccentric anomaly
187.1816°
Mean motion
3.4349 °/min
Orbital period
104.81 mins
BSTAR
0.00054667
Loading maneuver chart data...
Computing Atmospheric mass density...

Documentation

Showing up to 5 results
|